STARLINK-36082, 66872

Orbit data source: Space-Track

STARLINK-36082, 66872 is a payload satellite owned by SpaceX/Seattle (US) in LEO that was launched on Tue, 02 Dec 2025 UTC via an FALCON 9 launch vehicle from the Air Force Eastern Test Range (AFETR). Payload-class satellites include a variety of spacecraft equipped with specific instruments for various scientific and technological missions. These include communications satellites like Starlink; space stations such as the ISS; scientific satellites like the Hubble; Earth observation satellites from companies like Planet Labs, Umbra, and HawkEye 360; GPS; miniature CubeSats for education and research; and military/defense satellites.

Loading next visibility...
Identifier
66872, 2025-281AA
Orbit
LEO
Country
Flag of USUS
Related business
Manufacturer
SpaceX/Seattle
Mission
Operational Commercial Communications
Bus & Motor
STARLINK V2MO, Unknown motor
Mass
575 kg wet, ~530 kg dry
Launch date (UTC)
2025-12-02 (7 months ago)
Launch vehicle
FALCON 9
Launch site
Air Force Eastern Test Range (AFETR)
Object type
Payload
Rocket body
Debris
Shape & HBR
Box + 2 Pan, 17.7 m
Radar Cross Section
36.964 m², Large (>1 m²)

Expand to show TLE details & history
Last TLE update: 2 days ago

TLE from 2 days ago
0 STARLINK-36082
1 66872U 25281AA  26170.29272749  .00017159  00000-0  63097-3 0  9996
2 66872  43.0021 129.7335 0001902 272.4025  87.6609 15.27612453 31719
Epoch: 2026-06-19T07:01Z
TLE epoch observation values (Epoch: 2026-06-19T07:01:31.655Z)
Latitude
Longitude
116.82782°
Altitude
482.675 km
Speed
7.626 km/s
True Right ascension
08h 38m 56s
True Declination
0° 00' 00"
Sunlit
Object was in daylight at epoch
Visualization orbit readout
Latitude
Unknown
Longitude
Unknown
Altitude
Unknown
Speed
Unknown
Apparent Right ascension
Unknown
Apparent Declination
Unknown
Sunlit
N/A
Visualization observer readout
Local Sidereal Time
07:13:49
Azimuth
Unknown
Elevation
Unknown
Doppler factor
Unknown
Orbital elements
Apogee altitude
486.202 km
Perigee altitude
483.591 km
Semi-major axis
6,863.034 km
Eccentricity
0.00019
Inclination
43.0021°
RAAN
129.7335°
Arg. of periapsis
272.4025°
True anomaly
87.68268°
Mean anomaly
87.6609°
Eccentric anomaly
87.67179°
Mean motion
3.81741 °/min
Orbital period
94.3 mins
BSTAR
0.00063097
Loading maneuver chart data...
Computing Atmospheric mass density...
Loading historical data...
Loading historical data...
Loading historical data...
Loading historical data...
Loading historical data...
Loading historical data...
Loading historical data...

Documentation

Showing up to 5 results
|